Weather History for Madison, WI

Change the Weather History Date:

Friday, April 25, 2014

  Actual Average Record
Temperature  
Mean Temperature 55 °F 50 °F  
Max Temperature 68 °F 61 °F 85 °F (1990)
Min Temperature 42 °F 39 °F 21 °F (1972)
Degree Days  
Heating Degree Days 10 15  
Month to date heating degree days 485 489  
Since 1 July heating degree days 7745 6938  
Cooling Degree Days 0 0  
Month to date cooling degree days 0 0  
Year to date cooling degree days 0 0  
Growing Degree Days 6 (Base 50)    
Moisture  
Dew Point 40 °F    
Average Humidity 60    
Maximum Humidity 93    
Minimum Humidity 26    
Precipitation  
Precipitation 0.02 in 0.12 in 1.94 in (2009)
Month to date precipitation 3.96 2.82  
Year to date precipitation 7.11 7.70  
Snow  
Snow 0.00 in 0.00 in 0.30 in (1910)
Month to date snowfall 1.0 2.4  
Since 1 July snowfall 59.2 50.5  
Snow Depth 0.00 in    
Sea Level Pressure  
Sea Level Pressure 29.76 in    
Wind  
Wind Speed 8 mph (WNW)    
Max Wind Speed 22 mph    
Max Gust Speed 32 mph    
Visibility 7 miles    
Events Rain    
T = Trace of Precipitation, MM = Missing Value Source: NWS Daily Summary

Daily Weather History Graph

Daily Weather History Graph

Search for Another Location

Airport:

Trip Planner

Search our weather history database for the weather conditions in past years. The results will help you decide how hot, cold, wet, or windy it might be!

Date:

Astronomy

Apr. 25, 2014 Rise Set
Actual Time 5:59 AM CDT 7:51 PM CDT
Civil Twilight 5:29 AM CDT 8:22 PM CDT
Nautical Twilight 4:51 AM CDT 8:59 PM CDT
Astronomical Twilight 4:11 AM CDT 9:40 PM CDT
Moon 3:54 AM CDT (4/25) 4:08 PM CDT (4/25)
Length of Visible Light 14h 53m
Length of Day
13h 52m
Waning Crescent, 15% of the Moon is Illuminated
Apr 25
Waning Crescent
Apr 29
New
May 6
First Quarter
May 14
Full
May 21
Last Quarter

Hourly Weather History & Observations

Time (CDT) Temp. Windchill Dew Point Humidity Pressure Visibility Wind Dir Wind Speed Gust Speed Precip Events Conditions
12:35 AM 50.0 °F - 48.0 °F 93% 29.68 in 2.0 mi Calm Calm - 0.01 in Rain Light Rain
12:46 AM 50.0 °F - 48.0 °F 93% 29.68 in 1.8 mi SSW 3.5 mph - 0.02 in Rain Light Rain
12:53 AM 50.0 °F - 48.0 °F 93% 29.69 in 1.5 mi SSW 3.5 mph - 0.03 in Rain Light Rain
1:03 AM 50.0 °F - 48.9 °F 96% 29.68 in 1.5 mi Calm Calm - 0.02 in Rain Light Rain
1:20 AM 50.0 °F - 48.9 °F 96% 29.69 in 2.5 mi Variable 6.9 mph - 0.03 in Rain Light Rain
1:28 AM 50.0 °F - 48.0 °F 93% 29.69 in 4.0 mi WNW 6.9 mph - 0.03 in Rain Light Rain
1:36 AM 50.0 °F - 48.0 °F 93% 29.68 in 4.0 mi NW 9.2 mph - 0.03 in   Overcast
1:53 AM 48.9 °F - 46.9 °F 93% 29.69 in 8.0 mi NW 6.9 mph - 0.03 in   Overcast
2:26 AM 48.0 °F - 45.0 °F 89% 29.68 in 6.0 mi NW 10.4 mph - N/A   Overcast
2:53 AM 46.9 °F - 44.1 °F 90% 29.70 in 7.0 mi NW 9.2 mph - N/A   Overcast
3:53 AM 45.0 °F 39.3 °F 41.0 °F 86% 29.71 in 8.0 mi NW 11.5 mph - N/A   Overcast
4:20 AM 45.0 °F 40.6 °F 41.0 °F 86% 29.72 in 7.0 mi NW 8.1 mph - N/A   Overcast
4:53 AM 45.0 °F 41.2 °F 41.0 °F 86% 29.74 in 7.0 mi NW 6.9 mph - N/A   Overcast
5:53 AM 44.1 °F 40.1 °F 39.9 °F 85% 29.76 in 7.0 mi NNW 6.9 mph - N/A   Overcast
6:17 AM 43.0 °F 38.8 °F 39.0 °F 86% 29.75 in 6.0 mi NW 6.9 mph - N/A   Mostly Cloudy
6:53 AM 43.0 °F 40.3 °F 39.0 °F 86% 29.79 in 6.0 mi NW 4.6 mph - N/A   Mostly Cloudy
7:53 AM 45.0 °F 40.6 °F 39.0 °F 80% 29.81 in 7.0 mi NW 8.1 mph - N/A   Mostly Cloudy
8:53 AM 46.9 °F - 39.9 °F 77% 29.82 in 9.0 mi WNW 8.1 mph - N/A   Partly Cloudy
9:53 AM 51.1 °F - 42.1 °F 71% 29.81 in 10.0 mi West 8.1 mph - N/A   Partly Cloudy
10:53 AM 54.0 °F - 43.0 °F 66% 29.81 in 10.0 mi SSW 8.1 mph - N/A   Partly Cloudy
11:53 AM 57.0 °F - 42.1 °F 57% 29.79 in 10.0 mi Variable 4.6 mph - N/A   Partly Cloudy
12:53 PM 61.0 °F - 43.0 °F 52% 29.78 in 10.0 mi SW 8.1 mph 17.3 mph N/A   Scattered Clouds
1:53 PM 66.0 °F - 39.0 °F 37% 29.77 in 10.0 mi WNW 12.7 mph 25.3 mph N/A   Mostly Cloudy
2:53 PM 66.9 °F - 35.1 °F 31% 29.77 in 10.0 mi WNW 11.5 mph 24.2 mph N/A   Scattered Clouds
3:53 PM 66.9 °F - 32.0 °F 27% 29.77 in 10.0 mi WNW 17.3 mph 25.3 mph N/A   Scattered Clouds
4:53 PM 66.0 °F - 30.9 °F 27% 29.77 in 10.0 mi West 16.1 mph 25.3 mph N/A   Partly Cloudy
5:53 PM 64.9 °F - 30.0 °F 27% 29.78 in 10.0 mi WNW 12.7 mph 21.9 mph N/A   Scattered Clouds
6:53 PM 64.0 °F - 32.0 °F 30% 29.79 in 10.0 mi NW 10.4 mph - N/A   Partly Cloudy
7:53 PM 60.1 °F - 33.1 °F 36% 29.80 in 10.0 mi West 4.6 mph - N/A   Partly Cloudy
8:53 PM 55.9 °F - 35.1 °F 45% 29.83 in 10.0 mi Calm Calm - N/A   Partly Cloudy
9:53 PM 52.0 °F - 35.1 °F 53% 29.84 in 10.0 mi Calm Calm - N/A   Clear
10:53 PM 54.0 °F - 34.0 °F 47% 29.83 in 10.0 mi Calm Calm - N/A   Clear
11:53 PM 46.4 °F 43.5 °F 35.6 °F 66% 29.84 in 10.0 mi NNW 5.8 mph - N/A   Clear